FW2308 Weather Reports


time (UTC)temp
C
wind
direction
speed
KPH
gust
KPH
rain 1hr
cm
rain 24hr
cm
rain mn
cm
humidity
%
barometer
mb
20260906083024 23 296 0.0 0.0 0.00 0.00 0.00 88 1010.7
20260906081529 22 296 0.0 3.2 0.00 0.00 0.00 89 1010.6
20260906080022 22 176 0.0 0.0 0.00 0.00 0.00 90 1010.3
20260906074522 22 176 0.0 0.0 0.00 0.00 0.00 89 1010.2
20260906073020 22 176 0.0 0.0 0.00 0.00 0.00 88 1010.4
20260906071518 22 176 0.0 0.0 0.00 0.00 0.00 87 1010.5
20260906070017 23 176 0.0 0.0 0.00 0.00 0.00 86 1010.6
20260906064522 23 184 0.0 1.6 0.00 0.00 0.00 86 1010.8
20260906063012 23 294 0.0 1.6 0.00 0.00 0.00 86 1010.8
20260906061510 23 294 0.0 1.6 0.00 0.00 0.00 87 1011.1
20260906060011 23 294 0.0 0.0 0.00 0.00 0.00 87 1011.4
20260906054507 23 294 0.0 0.0 0.00 0.00 0.00 87 1011.6
20260906053004 23 294 0.0 0.0 0.00 0.00 0.00 86 1011.8
20260906051602 23 294 0.0 1.6 0.00 0.00 0.00 86 1011.9
20260906050111 23 294 0.0 1.6 0.00 0.00 0.00 86 1012.0
20260906044551 23 294 0.0 1.6 0.00 0.00 0.00 85 1011.9
20260906043046 23 294 0.0 1.6 0.00 0.00 0.00 84 1011.8
20260906041545 23 285 0.0 1.6 0.00 0.00 0.00 84 1011.5
20260906040041 23 285 0.0 1.6 0.00 0.00 0.00 85 1011.6
20260906034540 23 216 0.0 1.6 0.00 0.00 0.00 85 1011.6
20260906033037 23 216 0.0 1.6 0.00 0.00 0.00 84 1011.7
20260906031604 23 216 0.0 0.0 0.00 0.00 0.00 84 1011.7
20260906030038 23 216 0.0 0.0 0.00 0.00 0.00 84 1011.6
20260906024542 24 216 0.0 0.0 0.00 0.00 0.00 84 1011.5
20260906023043 24 216 0.0 0.0 0.00 0.00 0.00 83 1011.5
20260906021535 24 216 0.0 0.0 0.00 0.00 0.00 82 1011.6
20260906020044 25 215 0.0 0.0 0.00 0.00 0.00 82 1011.4
20260906014534 25 215 0.0 1.6 0.00 0.00 0.00 81 1011.4
20260906013033 25 257 0.0 1.6 0.00 0.00 0.00 80 1011.6
20260906011533 25 257 0.0 0.0 0.00 0.00 0.00 79 1011.5
20260906010034 25 257 0.0 1.6 0.00 0.00 0.00 77 1011.4
20260906004531 26 184 0.0 3.2 0.00 0.00 0.00 76 1011.2
20260906003031 26 231 0.0 1.6 0.00 0.00 0.00 73 1010.9
20260906001539 27 251 0.0 1.6 0.00 0.00 0.00 70 1010.4
20260906000030 28 223 0.0 8.0 0.00 0.00 0.00 66 1010.8
20260905234532 28 46 4.8 9.7 0.00 0.00 0.00 64 1010.2
20260905233032 28 334 0.0 1.6 0.00 0.00 0.00 64 1010.3
20260905231534 28 50 0.0 1.6 0.00 0.00 0.00 64 1010.3
20260905230027 28 50 0.0 4.8 0.00 0.00 0.00 62 1010.2
20260905224527 28 15 0.0 4.8 0.00 0.00 0.00 63 1010.3
20260905223027 28 4 0.0 6.4 0.00 0.00 0.00 63 1010.3
20260905221525 28 9 0.0 4.8 0.00 0.00 0.00 65 1010.2
20260905220024 27 293 0.0 1.6 0.00 0.00 0.00 68 1010.1
20260905214524 27 293 0.0 1.6 0.00 0.00 0.00 70 1010.4
20260905213023 28 155 0.0 3.2 0.00 0.00 0.00 66 1010.6
20260905211523 28 158 1.6 4.8 0.00 0.00 0.00 61 1010.7
20260905210022 28 346 0.0 8.0 0.00 0.00 0.00 58 1010.8
20260905204525 28 22 1.6 8.0 0.00 0.00 0.00 60 1011.2
20260905203021 29 30 3.2 16.1 0.00 0.00 0.00 57 1011.3
20260905201521 30 27 11.3 30.6 0.00 0.00 0.00 58 1010.9
20260905200020 31 330 11.3 35.4 0.00 0.00 0.00 55 1010.6
20260905194519 33 32 12.9 37.0 0.00 0.00 0.00 55 1010.4
20260905193017 36 35 9.7 11.3 0.00 0.00 0.00 47 1010.0
20260905191515 36 36 8.0 11.3 0.00 0.00 0.00 48 1010.1
20260905190026 36 48 4.8 6.4 0.00 0.00 0.00 49 1009.9
20260905184511 35 70 1.6 4.8 0.00 0.00 0.00 45 1010.2
20260905183012 35 67 3.2 4.8 0.00 0.00 0.00 46 1010.2
20260905181505 35 60 3.2 4.8 0.00 0.00 0.00 50 1010.7
20260905180004 35 53 3.2 6.4 0.00 0.00 0.00 51 1011.0
20260905174558 35 39 6.4 8.0 0.00 0.00 0.00 52 1011.2
20260905173113 34 75 3.2 6.4 0.00 0.00 0.00 53 1011.2
20260905171556 33 58 3.2 4.8 0.00 0.00 0.00 57 1011.3
20260905170049 33 54 4.8 8.0 0.00 0.00 0.00 60 1011.7
20260905164547 33 56 4.8 6.4 0.00 0.00 0.00 64 1012.0
20260905163044 33 63 4.8 6.4 0.00 0.00 0.00 61 1012.2
20260905161544 32 53 4.8 6.4 0.00 0.00 0.00 67 1012.4
20260905160052 32 49 4.8 6.4 0.00 0.00 0.00 65 1012.4
20260905154549 32 48 4.8 6.4 0.00 0.00 0.00 66 1012.5
20260905153040 32 51 4.8 6.4 0.00 0.00 0.00 65 1012.7
20260905151538 31 56 3.2 6.4 0.00 0.00 0.00 66 1012.9
20260905150041 31 63 4.8 6.4 0.00 0.00 0.00 68 1012.9
20260905144538 31 42 1.6 4.8 0.00 0.00 0.00 67 1012.9
20260905143035 32 304 1.6 3.2 0.00 0.00 0.00 61 1013.2
20260905141533 32 302 1.6 3.2 0.00 0.00 0.00 62 1013.2
20260905140030 31 53 1.6 3.2 0.00 0.00 0.00 65 1013.3
20260905134528 31 309 0.0 3.2 0.00 0.00 0.00 66 1013.3
20260905133027 30 313 0.0 3.2 0.00 0.00 0.00 69 1013.4
20260905131521 29 311 1.6 4.8 0.00 0.00 0.00 72 1013.6
20260905130017 28 307 0.0 1.6 0.00 0.00 0.00 76 1013.5
20260905124516 27 298 0.0 1.6 0.00 0.00 0.00 77 1013.5
20260905123012 26 164 0.0 3.2 0.00 0.00 0.00 81 1013.5
20260905121512 25 153 0.0 1.6 0.00 0.00 0.00 86 1013.5
20260905120023 23 152 0.0 0.0 0.00 0.00 0.00 90 1013.3
20260905114511 22 152 0.0 0.0 0.00 0.00 0.00 90 1013.1
20260905113009 22 161 0.0 3.2 0.00 0.00 0.00 91 1013.1
20260905111509 22 163 0.0 0.0 0.00 0.00 0.00 91 1012.7
20260905110017 22 163 0.0 0.0 0.00 0.00 0.00 90 1012.7
20260905104510 22 163 0.0 0.0 0.00 0.00 0.00 90 1012.6
20260905103109 22 163 0.0 0.0 0.00 0.00 0.00 90 1012.5
20260905101507 22 163 0.0 0.0 0.00 0.00 0.00 90 1012.3
20260905100005 22 163 0.0 0.0 0.00 0.00 0.00 89 1012.4
20260905094504 22 163 0.0 0.0 0.00 0.00 0.00 89 1012.5
20260905093004 23 163 0.0 0.0 0.00 0.00 0.00 88 1012.5
20260905091501 23 163 0.0 0.0 0.00 0.00 0.00 88 1012.5
20260905090100 23 163 0.0 0.0 0.00 0.00 0.00 88 1012.4
20260905084601 23 163 0.0 0.0 0.00 0.00 0.00 88 1012.5